Retour au catalogue

STARLINK-31729

ActifCommunicationsVLEO
NORAD 59610·PAYLOAD·🇺🇸 United States

Lancé Apr 28, 2024 depuis Cape Canaveral Space Force Station

Loading…

Prochains Passages (prochaines 24 heures)

TLE

FraisSource: CelesTrak SupGP

Époque: Sep 14, 2026, 20:53 UTC

1 59610C 24080K   26257.87062500  .00054636  00000+0  19761-2 0  2571
2 59610  43.0046  46.2971 0001686 285.5955  37.6551 15.27596781    18

Suivez STARLINK-31729 en temps réel avec AllMySat

Download on the App Store